India Forums Logo

Saath Nibhaana Saathiya

India Forums > Forum Index > Saath Nibhaana Saathiya
Saath Nibhaana Saathiya, launches May 3rd, Mon- Friday at 7 pm only on Star Plus.
<< | 1 | 2 | 3 | 4 | 5 | 6 | 7 | 8 | 9 | 10 | 11 | 12 | 13 | 14 | 15 | 16 | 17 | 18 | 19 | ... >>
TIDTopic SubjectStart DateLast Entry
1455478Forgetful Modis or CVs?8/6/2010 8:50:42 AM8/6/2010 9:31:32 AM
1455551Saathiya 6th Aug10-Video OL/DL/Pic *DVDQ*8/6/2010 9:51:20 AM8/6/2010 3:05:52 PM
1455567Saathiya-06th Aug 2010(Must Watch)8/6/2010 10:02:51 AM8/6/2010 1:01:04 PM
1455578~*~ Saathiya Of The Week #1 Closed~*~8/6/2010 10:11:18 AM8/14/2010 1:02:14 PM
1455601going around in circles8/6/2010 10:30:07 AM8/6/2010 11:49:08 AM
1455624Aham Confusing me like anything8/6/2010 10:46:49 AM8/7/2010 3:30:20 AM
14556696th AugSaathiya*DVD Q*Video-ONline/DL/Pics8/6/2010 11:19:50 AM8/6/2010 11:19:50 AM
1455784Saathiya-06 Aug 2010(Short Update)8/6/2010 1:09:40 PM8/6/2010 1:09:40 PM
1455794New fanfic8/6/2010 1:22:22 PM8/7/2010 2:35:25 PM
1455800Bad Editing is also An Issue8/6/2010 1:30:26 PM8/7/2010 2:53:09 PM
1455803Hetal8/6/2010 1:31:52 PM11/17/2010 1:18:51 PM
1455846day by day8/6/2010 2:42:08 PM8/6/2010 3:04:12 PM
1455850i kinda stole this :x8/6/2010 2:47:15 PM8/9/2010 4:13:22 AM
1455885Is this normal?8/6/2010 4:14:38 PM8/7/2010 10:31:26 AM
1455886"Popular Cast"8/6/2010 4:17:49 PM8/10/2010 5:19:26 AM
1455931Modi family's memory lose....8/6/2010 6:53:54 PM8/7/2010 7:17:05 AM
1456242Saathiya @ 8 Last Week TRP8/7/2010 8:04:44 AM10/26/2010 1:30:51 AM
1456262Next coming week8/7/2010 8:33:20 AM8/16/2010 8:55:26 AM
1456280past and future gopi8/7/2010 9:07:49 AM8/8/2010 2:49:28 AM
1456469Kokila and Hetal, Rashi and Gopi8/7/2010 4:12:47 PM8/8/2010 7:39:48 AM
1456505Attempt to murder?8/7/2010 6:30:29 PM8/8/2010 2:14:43 AM
1456621gopi's expressions!!!8/8/2010 1:20:09 AM8/24/2010 1:35:10 AM
1456671The impact of the letters truth on Gopi8/8/2010 3:42:53 AM8/8/2010 10:54:35 AM
1456988I can't remember!8/8/2010 10:24:06 PM8/9/2010 9:19:04 AM
1456990Wedding DVD will reveal the truth::::::8/8/2010 10:26:27 PM8/9/2010 1:02:03 AM
1457019uuufffffffoooooooo8/9/2010 12:15:36 AM8/9/2010 2:04:53 AM
1457099finally saathiya in sbs link inclluded8/9/2010 4:04:12 AM8/9/2010 11:10:27 PM
1457224Aug 09: KSH now turns Teacher8/9/2010 7:41:13 AM8/10/2010 2:06:29 AM
1457235kokila is hurt and now for the hanging8/9/2010 7:54:34 AM8/9/2010 8:39:04 AM
1457259Aham separating8/9/2010 8:21:42 AM8/9/2010 9:08:16 AM
1457266Mani's actress changed :O[DISSCUSSION CLOSED]8/9/2010 8:40:24 AM8/9/2010 2:08:22 PM
1457285Kokila back to square one8/9/2010 9:03:50 AM8/9/2010 9:29:37 AM
1457290Saathiya-09th Aug 2010(Must Watch)8/9/2010 9:08:14 AM8/9/2010 10:13:00 AM
1457295who is like gopi8/9/2010 9:13:52 AM8/9/2010 6:28:29 PM
1457299change8/9/2010 9:17:30 AM8/10/2010 7:19:57 AM
1457348Saathiya 9th Aug10-Video OL/DL/Pic *DVDQ*8/9/2010 10:05:26 AM8/9/2010 10:05:26 AM
1457421The Rassi Punishment8/9/2010 10:59:53 AM8/9/2010 8:59:19 PM
1457526wow ahem8/9/2010 12:32:43 PM8/10/2010 7:27:35 AM
1457648Did anyone notice8/9/2010 3:51:33 PM8/10/2010 7:48:27 AM
1457680Tears for Gopis mistake or Kokilas mistake8/9/2010 5:54:18 PM8/11/2010 5:37:57 AM
1457767Preview for today8/9/2010 10:35:06 PM8/10/2010 7:56:17 AM
1457863Need Help8/10/2010 2:38:20 AM8/10/2010 2:38:20 AM
1457990Have you ever noticed8/10/2010 6:02:36 AM8/10/2010 6:35:05 AM
1458034Aug 10 - SNS Written update complete8/10/2010 7:26:46 AM8/11/2010 5:35:27 AM
1458056New Pracep- Now Decipher It8/10/2010 8:12:58 AM8/10/2010 11:45:17 AM
1458059precap kokila angry8/10/2010 8:14:58 AM8/10/2010 9:14:35 AM
1458064Rashi Rupmati and Rasode Se Bair8/10/2010 8:17:22 AM8/10/2010 8:37:13 AM
1458066The tying up of the bahus8/10/2010 8:18:47 AM8/10/2010 12:03:59 PM
1458083Koki's Advice For Gopi8/10/2010 8:32:12 AM8/10/2010 9:43:46 AM
1458100Gopi ka gopala8/10/2010 8:53:14 AM8/10/2010 9:37:30 PM
1458121Saathiya-10th July 2010(Must Watch)8/10/2010 9:14:03 AM8/10/2010 9:14:03 AM
1458263No Interesting stars in this?8/10/2010 10:52:13 AM8/11/2010 5:11:25 PM
1458265Saathiya 10th Aug10-Video OL/DL/Pic *DVDQ*8/10/2010 10:53:28 AM8/10/2010 1:09:43 PM
1458781funny dream8/11/2010 3:19:51 AM8/11/2010 8:09:39 PM
1458839itx enough8/11/2010 5:02:57 AM8/11/2010 6:34:36 AM
1458910Aug 11: Aham ki Watt Lagegi Kal8/11/2010 7:16:43 AM8/11/2010 8:11:59 PM
1458948thanks saathiya8/11/2010 8:14:50 AM8/11/2010 8:14:50 AM
1458950vah Aham vah8/11/2010 8:15:16 AM8/12/2010 5:13:32 AM
1458951rashi is going to get tarted up8/11/2010 8:17:44 AM8/11/2010 5:16:36 PM
1458958Aham Beta Tu To Gaya Kaam Se8/11/2010 8:31:30 AM8/11/2010 11:17:20 AM
1459032Saathiya 11th Aug10-Video OL/DL/Pic *DVDQ*8/11/2010 10:04:02 AM8/12/2010 9:47:02 AM
1459139Gopi needs to put her foot down...8/11/2010 11:30:21 AM8/12/2010 7:33:47 AM
1459224Aham treats8/11/2010 12:57:28 PM8/11/2010 5:06:10 PM
1459409Break the glass game....8/11/2010 8:53:42 PM8/12/2010 7:28:15 AM
1459493Really Jigar?8/12/2010 12:16:59 AM8/12/2010 7:30:47 AM
1459556May Be !!!8/12/2010 2:51:15 AM8/13/2010 9:15:51 AM
1459592Have a wonderful Azadi celebration8/12/2010 3:54:01 AM8/12/2010 6:42:47 AM
1459660TRP Ratings 11th August: @ No 58/12/2010 5:20:06 AM8/12/2010 7:37:28 AM
1459693TAM Ratings - 01/08/2010 to 07/08/20108/12/2010 5:49:13 AM8/12/2010 6:44:16 AM
1459782Briefest Update Done, detailed later8/12/2010 7:49:33 AM8/12/2010 10:07:48 AM
1459785Koki Rocks8/12/2010 7:53:38 AM8/12/2010 8:46:23 AM
1459799kinjal blackmailed8/12/2010 8:09:51 AM8/13/2010 8:08:21 AM
1459809Aham wife abuser8/12/2010 8:22:06 AM8/12/2010 10:34:35 AM
1459817kokila introduction and punishment8/12/2010 8:31:49 AM8/12/2010 8:52:46 AM
1459819" I Still Love You.Gopi."8/12/2010 8:35:15 AM8/12/2010 12:54:10 PM
<< | 1 | 2 | 3 | 4 | 5 | 6 | 7 | 8 | 9 | 10 | 11 | 12 | 13 | 14 | 15 | 16 | 17 | 18 | 19 | ... >>